Flag for Canada Weather past 2 weeks in Arctic Bay, Nunavut, Canada

-26 °F

Light snow. Clear.

Feels Like: -40 °F
Forecast: -16 / -13 °F
Wind: 5 mph from South

Location: Pond Inlet

Current Time: Nov 28, 2015 at 1:38:11 AM

Latest Report: Nov 28, 2015 at 1:00 AM

Visibility: 9 mi

Pressure: 29.85 "Hg

Humidity: 75%

Dew point: -31 °F

Location of Arctic BayLocation

Historic Weather in Arctic Bay — Graph


Arctic Bay temperature yesterday

Maximum temperature yesterday: -26 °F (at 4:00 AM)
Minimum temperature yesterday: -31 °F (at 5:00 PM)
Average temperature yesterday: -28 °F

Past Weeks' High & Low Weather Summary

High27 °F (Nov 19, 12:00 AM)100% (Nov 13, 9:00 AM)30.35 "Hg (Nov 13, 9:00 AM)
Low-31 °F (Nov 27, 5:00 PM)62% (Nov 14, 11:00 PM)29.04 "Hg (Nov 19, 1:00 AM)
Average-1 °F80%29.79 "Hg
* Reported Midnight between Nov 12 and Nov 13 — Midnight between Nov 27 and Nov 28, Arctic Bay, Weather by CustomWeather, © 2015

Note: Actual official high and low records may vary slightly from our data, if they occured in-between our weather recording intervals... More about our weather records


Arctic Bay weather history for previous 24 hours

Time TempWeatherWind HumidityBarometerVisibility
12:00 AM
Sat, Nov 28
-26 °FSunny.5 mph67%29.86 "Hg9 mi
11:00 PM
Fri, Nov 27
-29 °FClear.7 mph74%29.86 "Hg9 mi
10:00 PM-27 °FClear.3 mph67%29.88 "Hg9 mi
9:00 PM-26 °FClear.2 mph67%29.88 "Hg9 mi
8:00 PM-27 °FClear.6 mph67%29.89 "Hg9 mi
7:00 PM-27 °FPassing clouds.7 mph74%29.90 "Hg15 mi
6:00 PM-31 °FPassing clouds.7 mph67%29.91 "Hg15 mi
5:00 PM-31 °FScattered clouds.6 mph74%29.91 "Hg15 mi
4:00 PM-29 °FScattered clouds.8 mph74%29.91 "Hg15 mi
3:00 PM-27 °FScattered clouds.9 mph74%29.92 "Hg35 mi
2:00 PM-29 °FBroken clouds.7 mph74%29.92 "Hg35 mi
1:00 PM-27 °FBroken clouds.8 mph67%29.92 "Hg35 mi
12:00 PM-26 °FPartly sunny.8 mph67%29.93 "Hg35 mi
11:00 AM-26 °FPartly sunny.7 mph75%29.93 "Hg35 mi
10:00 AM-27 °FSunny.6 mph67%29.93 "Hg9 mi
9:00 AM-27 °FSunny.6 mph67%29.95 "Hg9 mi
8:00 AM-29 °FSunny.6 mph67%29.96 "Hg9 mi
7:00 AM-29 °FSunny.7 mph67%29.96 "Hg9 mi
6:00 AM-27 °FLight snow. Sunny.7 mph74%29.96 "Hg9 mi
5:48 AM-29 °FLight snow. Clear.7 mph67%29.96 "Hg9 mi
5:00 AM-27 °FLight snow. Clear.7 mph74%29.96 "Hg9 mi
4:00 AM-26 °FLight snow. Clear.7 mph75%29.97 "Hg9 mi
3:00 AM-27 °FLight snow. Clear.7 mph74%29.96 "Hg9 mi
1:00 AM-27 °FPassing clouds.8 mph67%29.96 "Hg9 mi
Weather by CustomWeather, © 2015

See weather overviewHow to use our weather pages